Weather History for Bentonville, AR

Change the Weather History Date:

Tuesday, December 4, 2012

  Actual Average Record
Temperature  
Mean Temperature 53 °F -  
Max Temperature 64 °F 51 °F 70 °F (1988)
Min Temperature 42 °F 27 °F 12 °F (1989)
Degree Days  
Heating Degree Days 12    
Growing Degree Days 3 (Base 50)    
Moisture  
Dew Point 41 °F    
Average Humidity 63    
Maximum Humidity 94    
Minimum Humidity 36    
Precipitation  
Precipitation 1.24 in - - ()
Sea Level Pressure  
Sea Level Pressure 30.17 in    
Wind  
Wind Speed 9 mph (NNE)    
Max Wind Speed 17 mph    
Max Gust Speed 22 mph    
Visibility 10 miles    
Events Thunderstorm    
Averages and records for this station are not official NWS values.
T = Trace of Precipitation, MM = Missing Value Source: NWS Daily Summary

Daily Weather History Graph

Daily Weather History Graph

Search for Another Location

Airport:

Trip Planner

Search our weather history database for the weather conditions in past years. The results will help you decide how hot, cold, wet, or windy it might be!

Date:

Astronomy

Dec. 04, 2012 Rise Set
Actual Time 7:12 AM CST 5:01 PM CST
Civil Twilight 6:44 AM CST 5:30 PM CST
Nautical Twilight 6:12 AM CST 6:02 PM CST
Astronomical Twilight 5:41 AM CST 6:33 PM CST
Moon 10:43 PM CST (12/4) 11:13 AM CST (12/4)
Length of Visible Light 10h 45m
Length of Day
9h 48m
Waning Gibbous, 69% of the Moon is Illuminated
Dec 4
Waning Gibbous
Dec 6
Last Quarter
Dec 13
New
Dec 19
First Quarter
Dec 28
Full

Hourly Weather History & Observations

Time (CST) Temp. Windchill Dew Point Humidity Pressure Visibility Wind Dir Wind Speed Gust Speed Precip Events Conditions
12:35 AM 64.4 °F - 57.2 °F 77% 29.96 in 10.0 mi SSW 11.5 mph - N/A   Mostly Cloudy
12:55 AM 64.4 °F - 57.2 °F 77% 29.97 in 10.0 mi NW 8.1 mph - N/A Thunderstorm Overcast
1:16 AM 62.6 °F - 57.2 °F 82% 29.98 in 9.0 mi WNW 4.6 mph - 0.01 in Thunderstorm Thunderstorm
1:35 AM 60.8 °F - 57.2 °F 88% 29.97 in 10.0 mi WNW 4.6 mph - 0.03 in Thunderstorm Overcast
1:55 AM 62.6 °F - 57.2 °F 82% 29.98 in 8.0 mi Calm Calm - 0.11 in Thunderstorm Overcast
2:55 AM 60.8 °F - 57.2 °F 88% 29.99 in 10.0 mi West 4.6 mph - 0.30 in Thunderstorm Thunderstorm
3:15 AM 60.8 °F - 57.2 °F 88% 29.99 in 9.0 mi NNW 5.8 mph - 0.04 in Thunderstorm Overcast
3:35 AM 60.8 °F - 57.2 °F 88% 29.99 in 7.0 mi Calm Calm - 0.21 in Thunderstorm Thunderstorm
3:55 AM 59.0 °F - 55.4 °F 88% 30.00 in 5.0 mi North 12.7 mph 17.3 mph 0.42 in Thunderstorm Thunderstorm
3:56 AM 57.2 °F - 55.4 °F 94% 30.00 in 5.0 mi North 11.5 mph 17.3 mph N/A Thunderstorm Thunderstorm
4:15 AM 55.4 °F - 51.8 °F 88% 30.01 in 4.0 mi North 13.8 mph - 0.24 in Thunderstorm Thunderstorm
4:55 AM 51.8 °F - 48.2 °F 88% 30.01 in 10.0 mi North 17.3 mph 21.9 mph 0.41 in Thunderstorm Overcast
5:15 AM 51.8 °F - 48.2 °F 88% 30.03 in 10.0 mi North 15.0 mph 20.7 mph N/A   Overcast
5:35 AM 51.8 °F - 48.2 °F 88% 30.05 in 10.0 mi North 13.8 mph - N/A   Overcast
6:35 AM 51.8 °F - 46.4 °F 82% 30.07 in 10.0 mi North 15.0 mph 21.9 mph N/A   Overcast
7:35 AM 51.8 °F - 44.6 °F 76% 30.12 in 10.0 mi North 10.4 mph - N/A   Overcast
7:55 AM 51.8 °F - 44.6 °F 76% 30.13 in 10.0 mi North 12.7 mph - N/A   Overcast
8:35 AM 51.8 °F - 44.6 °F 76% 30.15 in 10.0 mi North 12.7 mph - N/A   Overcast
8:55 AM 51.8 °F - 44.6 °F 76% 30.16 in 10.0 mi North 11.5 mph - N/A   Overcast
9:16 AM 51.8 °F - 42.8 °F 71% 30.16 in 10.0 mi North 15.0 mph - N/A   Overcast
9:35 AM 51.8 °F - 41.0 °F 67% 30.17 in 10.0 mi North 10.4 mph 17.3 mph N/A   Mostly Cloudy
9:55 AM 53.6 °F - 42.8 °F 67% 30.19 in 10.0 mi NNE 15.0 mph - N/A   Partly Cloudy
10:35 AM 55.4 °F - 41.0 °F 58% 30.20 in 10.0 mi NNE 13.8 mph - N/A   Clear
11:35 AM 57.2 °F - 42.8 °F 59% 30.20 in 10.0 mi North 12.7 mph - N/A   Clear
12:15 PM 57.2 °F - 37.4 °F 48% 30.20 in 10.0 mi North 11.5 mph - N/A   Clear
12:35 PM 59.0 °F - 35.6 °F 42% 30.20 in 10.0 mi NNE 13.8 mph 17.3 mph N/A   Clear
12:55 PM 60.8 °F - 35.6 °F 39% 30.19 in 10.0 mi NNE 10.4 mph - N/A   Clear
1:15 PM 60.8 °F - 35.6 °F 39% 30.19 in 10.0 mi North 11.5 mph - N/A   Clear
1:35 PM 59.0 °F - 35.6 °F 42% 30.20 in 10.0 mi North 13.8 mph 17.3 mph N/A   Clear
2:15 PM 60.8 °F - 33.8 °F 36% 30.19 in 10.0 mi NNE 12.7 mph - N/A   Clear
2:35 PM 59.0 °F - 35.6 °F 42% 30.19 in 10.0 mi North 12.7 mph - N/A   Clear
2:55 PM 59.0 °F - 33.8 °F 39% 30.20 in 10.0 mi North 11.5 mph - N/A   Clear
3:15 PM 59.0 °F - 33.8 °F 39% 30.21 in 10.0 mi North 13.8 mph - N/A   Clear
3:56 PM 57.2 °F - 35.6 °F 44% 30.22 in 10.0 mi NNE 8.1 mph - N/A   Clear
4:15 PM 57.2 °F - 33.8 °F 41% 30.23 in 10.0 mi North 11.5 mph - N/A   Clear
4:35 PM 57.2 °F - 33.8 °F 41% 30.24 in 10.0 mi North 11.5 mph - N/A   Clear
4:55 PM 55.4 °F - 33.8 °F 44% 30.24 in 10.0 mi North 9.2 mph - N/A   Clear
5:16 PM 53.6 °F - 33.8 °F 47% 30.24 in 10.0 mi North 8.1 mph - N/A   Clear
5:35 PM 53.6 °F - 33.8 °F 47% 30.24 in 10.0 mi North 8.1 mph - N/A   Clear
5:55 PM 51.8 °F - 33.8 °F 50% 30.25 in 10.0 mi North 8.1 mph - N/A   Clear
6:15 PM 51.8 °F - 33.8 °F 50% 30.24 in 10.0 mi North 5.8 mph - N/A   Clear
6:35 PM 50.0 °F - 33.8 °F 54% 30.25 in 10.0 mi North 8.1 mph - N/A   Clear
6:55 PM 48.2 °F - 32.0 °F 54% 30.25 in 10.0 mi North 6.9 mph - N/A   Clear
7:15 PM 48.2 °F - 33.8 °F 58% 30.25 in 10.0 mi NNE 5.8 mph - N/A   Clear
7:35 PM 48.2 °F - 33.8 °F 58% 30.26 in 10.0 mi North 4.6 mph - N/A   Clear
7:36 PM 48.2 °F - 33.8 °F 58% 30.26 in 10.0 mi North 4.6 mph - N/A   Clear
7:55 PM 48.2 °F - 30.2 °F 50% 30.26 in 10.0 mi NE 4.6 mph - N/A   Clear
8:15 PM 48.2 °F - 30.2 °F 50% 30.27 in 10.0 mi ENE 4.6 mph - N/A   Clear
8:35 PM 46.4 °F 45.2 °F 32.0 °F 57% 30.28 in 10.0 mi NE 3.5 mph - N/A   Clear
8:55 PM 46.4 °F 45.2 °F 32.0 °F 57% 30.29 in 10.0 mi NE 3.5 mph - N/A   Clear
9:15 PM 46.4 °F 45.2 °F 32.0 °F 57% 30.29 in 10.0 mi NE 3.5 mph - N/A   Clear
10:15 PM 42.8 °F 41.1 °F 32.0 °F 66% 30.31 in 10.0 mi ENE 3.5 mph - N/A   Clear
10:35 PM 44.6 °F 43.1 °F 32.0 °F 61% 30.31 in 10.0 mi NE 3.5 mph - N/A   Clear
10:55 PM 42.8 °F 41.1 °F 33.8 °F 70% 30.31 in 10.0 mi NNE 3.5 mph - N/A   Clear
11:35 PM 42.8 °F 41.1 °F 32.0 °F 66% 30.31 in 10.0 mi NE 3.5 mph - N/A   Clear
11:55 PM 42.8 °F 41.1 °F 30.2 °F 61% 30.31 in 10.0 mi ENE 3.5 mph - N/A   Clear